SYRACUSE 3A

Last updated on Sat Dec 13 2025 00:02:46 GMT+0000 (Coordinated Universal Time)

1 28885U 05041B 25346.21413874 .00000140 00000+0 00000+0 0 9994 2 28885 4.1653 78.1680 0002941 176.8530 309.4600 1.00272386 73874
UTC large
Height (km)
Speed (km/s)
/
Latitude / Longitude
Inclination (degrees)
Orbital Period (minutes)
Azimuth
Elevation
Range (km)
Doppler Factor

Next 0 passes for location: London (51.5072 / 0.1276)

Sorry there are no passes over London.